Location: Dappach
(48.9767°N, 9.6998°E)
Time: 21:36:03
(UTC+00:00)

Cosmos 968 Rocket - Pass Details

Date: 23 May 2024
Orbit: 738 x 769 km, 74.0° (Epoch: 14 June)

Event Time Altitude Azimuth Distance (km) Brightness Sun altitude
Exits shadow 02:02:13 15° 213° (SSW) 1,896 4.9 -11.4°
Maximum altitude 02:06:22 69° 295° (WNW) 794 3.5 -10.9°
Drops below altitude 10° 02:11:29 10° 19° (NNE) 2,272 7.2 -10.4°
Sets 02:13:53 0° 22° (NNE) 3,205 8.3 -10.1°
